Theta_e
303 303 303 303 302 302 302 302 303 304 304 304 304 305 306 306 306 306 306 307 307 307 307 307 308 307 309 311 310 312 316 312 312 319 315 317 320 322 326 326 325 328 329 330 330 331 331
303 303 303 303 303 302 302 302 303 303 304 304 304 304 305 305 306 306 306 306 306 304 306 307 307 307 309 310 308 309 310 311 311 314 318 317 317 320 326 327 327 326 325 326 327 328 330
303 302 302 302 302 302 303 303 304 304 304 304 304 304 305 305 306 306 306 306 304 302 305 308 308 309 309 309 307 308 308 309 311 310 313 317 316 320 323 325 326 326 326 327 327 327 327
302 302 303 303 303 303 303 303 303 304 304 304 304 304 305 305 305 306 306 304 302 302 306 308 309 309 310 306 306 307 308 309 309 310 310 311 315 318 322 322 322 324 326 329 328 328 328
304 303 304 303 302 302 302 302 303 303 304 304 304 304 304 305 305 305 304 302 302 305 306 309 310 310 308 307 307 307 308 309 310 311 311 310 311 317 317 319 322 324 326 328 327 327 325
303 303 303 302 303 303 303 303 303 303 304 304 305 304 304 304 304 304 302 303 306 307 308 309 308 309 308 306 307 310 309 311 311 312 313 311 312 315 317 320 324 324 325 325 327 328 323
302 302 302 303 303 303 303 303 303 304 305 304 304 304 304 304 304 304 304 306 308 309 307 308 307 309 307 305 306 307 308 311 312 313 314 313 313 316 317 319 320 322 325 326 326 325 326
302 302 303 303 303 303 303 303 303 304 304 304 302 303 304 304 303 302 304 306 306 306 308 306 307 306 305 305 306 307 306 310 313 313 313 315 314 316 317 318 320 320 321 324 324 324 325
302 302 303 303 302 301 303 303 303 303 304 303 302 302 302 303 303 305 304 305 305 306 308 306 307 307 307 307 307 307 307 308 311 314 313 315 316 314 315 317 318 320 320 321 321 323 324
302 302 302 301 301 301 302 303 303 303 303 303 303 302 303 303 304 305 305 305 305 306 309 306 309 310 310 310 311 310 309 308 310 312 314 314 315 316 315 316 317 320 319 319 320 322 324
301 302 301 301 301 301 302 302 302 303 303 303 304 304 303 302 304 305 304 304 305 306 304 305 311 310 309 311 310 312 311 311 308 312 313 314 314 315 316 316 316 318 319 319 320 322 322
303 303 302 302 301 301 302 302 302 303 303 304 304 303 302 305 304 304 304 305 306 309 305 305 308 309 308 309 309 310 311 311 311 308 312 314 314 314 316 316 316 317 318 318 320 321 324
302 303 303 302 301 302 302 302 302 303 303 303 302 301 303 304 306 304 305 306 309 306 303 305 308 307 307 307 308 311 310 312 313 310 309 314 314 314 314 316 316 317 319 321 324 325 327
302 303 303 302 302 301 302 302 302 303 303 303 301 302 304 305 304 304 305 307 306 303 303 304 305 305 305 306 308 307 310 313 315 311 310 312 318 315 314 315 316 316 321 321 325 327 327
301 300 301 302 302 301 302 302 302 302 303 302 302 305 305 305 304 304 308 308 306 306 305 305 305 304 304 305 306 306 306 309 313 315 313 314 316 317 315 315 317 318 322 321 323 325 326
298 300 301 302 302 302 301 301 302 302 303 301 303 305 306 305 305 305 307 307 306 305 305 306 307 305 304 304 305 306 306 311 310 311 314 316 320 318 315 315 316 319 320 323 323 326 327
294 297 300 301 301 302 302 301 301 302 302 302 304 307 306 305 305 307 309 307 306 305 306 306 306 306 306 305 305 305 307 310 309 310 312 315 318 319 317 316 317 318 321 322 322 323 326
293 295 299 299 301 301 301 301 301 301 302 303 304 308 304 306 308 306 307 305 305 306 306 306 306 306 307 307 306 306 307 308 308 309 313 315 318 321 319 317 317 319 321 322 323 325 322
292 293 296 300 300 300 300 300 301 301 302 303 306 305 303 306 308 307 305 305 304 305 305 307 307 306 307 308 309 308 309 309 308 310 313 315 317 323 321 319 318 319 319 322 322 323 324
292 292 296 299 300 301 300 300 300 300 301 303 306 309 306 305 305 305 305 305 305 304 305 305 306 307 309 308 308 309 311 311 309 309 310 314 318 320 322 320 318 318 318 320 322 323 323
292 292 295 300 300 300 300 300 300 300 300 303 305 306 304 307 306 305 304 304 305 305 305 305 307 307 307 308 308 312 309 310 311 311 312 316 318 319 319 318 318 320 318 319 321 321 321
291 292 294 299 300 300 299 300 300 301 301 303 307 305 303 305 304 304 304 305 306 306 306 305 306 307 307 309 307 309 308 311 310 311 314 315 320 318 318 317 318 320 319 319 319 321 321
291 291 293 298 299 298 300 300 300 301 301 302 301 303 303 304 304 304 307 306 306 306 307 305 306 307 308 308 308 309 309 309 309 311 313 315 320 319 318 318 318 321 320 319 319 319 320
291 291 292 297 297 298 299 300 301 301 301 302 302 302 304 305 304 304 304 304 305 305 306 307 307 308 308 307 308 309 311 310 310 309 310 314 317 320 319 320 322 323 322 320 319 319 318
291 291 291 292 297 298 298 300 301 301 301 303 303 302 303 305 304 305 305 304 305 306 306 307 307 306 306 308 310 310 310 311 310 309 309 312 315 322 320 321 321 323 324 324 321 325 324
291 291 291 291 294 298 299 300 302 301 301 303 304 302 302 304 305 304 304 305 306 307 308 307 306 307 306 309 310 311 308 308 311 313 310 310 313 319 321 321 322 327 322 321 323 330 323
292 291 291 292 295 295 298 300 302 302 302 303 304 302 302 303 304 304 305 305 305 306 306 307 308 308 307 311 312 312 311 309 316 319 314 313 316 317 319 324 327 322 320 320 328 327 322
293 293 292 292 295 294 294 300 301 302 302 303 304 303 302 304 303 304 304 305 305 306 308 307 309 309 310 312 313 313 315 315 315 316 316 317 316 316 317 322 329 319 320 326 321 321 321
297 293 294 292 292 295 295 296 301 302 303 303 305 305 302 302 304 303 303 303 303 304 305 305 308 307 308 311 311 311 314 316 315 321 315 322 319 322 321 322 315 318 317 317 317 319 320
Wind_Speed
15 16 16 17 17 17 17 16 16 17 17 16 17 17 17 17 18 18 19 20 19 18 17 16 15 13 9 9 15 3 11 10 6 7 25 26 26 24 28 23 25 30 25 25 22 25 23
15 15 15 15 16 17 17 16 17 17 17 17 17 18 18 19 20 20 20 21 21 22 20 15 13 11 11 17 7 13 14 12 10 8 13 24 15 22 24 27 28 26 28 29 28 27 25
16 16 16 16 17 17 17 17 18 18 18 17 18 20 20 20 20 21 22 23 24 22 22 18 14 9 12 21 14 11 16 16 11 12 14 15 27 12 16 21 25 25 27 27 22 25 27
17 16 16 17 17 18 18 18 19 19 19 19 19 21 22 22 21 22 24 26 26 27 23 16 12 11 9 13 14 21 20 22 20 19 14 13 15 22 18 13 14 20 24 25 26 22 21
16 17 17 18 19 20 20 21 22 21 20 20 20 21 23 22 22 23 27 29 26 14 10 6 8 10 11 4 10 17 16 18 17 19 18 14 16 19 15 21 18 25 26 32 26 24 24
17 17 17 17 17 19 20 21 21 21 21 21 22 23 24 23 23 27 29 21 6 2 1 5 6 6 10 9 3 5 7 11 11 15 13 19 13 15 20 19 30 28 25 26 28 21 17
18 18 19 19 20 21 22 22 23 22 22 23 23 24 23 22 23 27 18 11 5 7 9 12 8 15 19 17 9 14 6 8 10 16 24 24 20 27 43 34 26 26 26 31 26 25 24
19 19 20 21 23 24 24 25 25 25 25 25 25 24 23 23 25 21 11 8 3 6 12 18 25 25 31 28 13 19 15 10 12 21 24 20 30 46 29 29 29 29 28 30 24 19 22
20 20 21 22 25 26 25 26 25 25 26 26 25 24 25 24 22 4 12 6 2 10 7 16 13 14 12 12 16 21 18 19 19 19 26 33 40 27 28 31 32 31 31 24 26 19 18
20 22 22 23 25 26 26 26 26 26 27 26 27 26 24 22 9 10 8 2 7 8 6 9 5 5 6 6 6 20 13 21 19 24 22 30 33 26 32 33 31 32 24 24 24 20 23
20 20 22 25 25 26 26 28 27 28 28 28 27 27 24 16 14 7 6 6 7 5 6 6 6 4 3 7 8 7 10 15 27 21 15 30 20 35 29 43 29 30 18 22 23 21 23
20 20 22 24 26 26 26 27 28 29 30 30 29 26 23 6 6 9 9 8 5 5 8 1 3 3 7 7 3 5 5 12 13 27 26 28 15 22 41 20 28 22 18 21 18 16 20
21 21 22 23 26 26 27 28 28 29 31 33 31 24 5 2 5 6 3 6 5 7 8 1 8 8 15 15 3 10 7 12 12 17 27 25 29 22 21 29 24 23 22 10 13 13 15
21 23 24 24 25 27 28 29 29 31 34 38 28 5 4 3 4 4 6 4 5 6 7 16 13 17 18 12 1 7 9 7 15 23 18 23 21 30 22 30 24 30 27 14 18 14 13
23 24 25 25 26 27 29 28 30 31 34 35 12 1 7 8 3 3 4 5 5 11 8 11 17 16 15 6 4 8 3 3 6 15 20 21 28 27 25 24 29 28 27 25 8 4 8
25 24 25 25 26 27 28 28 29 31 34 29 10 3 11 8 3 1 2 5 5 6 13 14 15 9 13 12 8 7 1 5 6 12 14 9 12 25 33 24 26 28 24 22 13 15 12
26 26 25 25 26 26 27 28 27 29 33 20 6 3 7 5 1 1 3 6 12 12 14 8 13 13 15 14 13 13 5 7 4 9 15 13 8 17 24 24 27 18 23 21 17 12 13
27 27 26 25 25 25 27 28 26 27 31 17 5 2 5 5 2 2 5 11 8 12 11 10 8 6 8 10 12 12 8 3 9 3 9 6 8 11 27 26 24 24 21 26 14 20 10
26 27 27 26 25 24 25 27 27 25 26 11 6 3 1 5 4 6 11 15 10 14 15 7 10 6 13 11 5 5 6 11 11 7 3 3 11 11 12 24 22 27 22 27 15 9 19
26 27 27 25 25 24 24 25 26 24 24 11 4 4 2 2 3 8 11 8 12 10 10 12 13 12 12 10 7 7 9 7 5 7 9 7 9 17 7 22 18 25 28 26 23 12 13
26 27 27 25 23 22 24 25 24 21 20 7 3 2 3 4 5 11 10 8 12 9 7 14 6 7 11 8 16 2 7 13 7 5 5 4 12 19 13 8 7 13 25 23 26 19 15
27 28 27 25 23 22 24 23 22 19 16 4 3 3 4 10 9 11 7 8 12 14 12 10 13 17 17 16 13 17 13 6 2 5 5 4 4 13 16 14 8 8 13 26 23 22 21
27 28 28 24 23 25 24 21 19 16 10 1 1 3 3 7 6 6 6 10 12 15 10 9 13 16 14 12 14 17 16 14 13 13 6 4 4 10 17 16 7 10 13 19 21 19 21
27 28 28 24 22 27 24 22 17 13 8 4 3 3 3 6 6 9 14 13 15 16 11 15 13 12 9 19 21 19 19 18 18 17 12 8 6 7 13 11 11 9 1 14 18 20 20
27 27 28 26 21 24 25 20 16 11 9 6 4 3 2 6 10 13 11 15 14 11 12 13 10 6 14 14 7 8 7 7 13 18 16 13 5 5 7 12 8 8 8 3 9 7 7
26 27 28 29 25 22 25 20 16 10 8 7 7 8 3 4 3 12 14 13 10 10 8 8 13 7 4 3 4 6 3 3 2 3 12 12 8 4 5 15 14 9 8 4 4 8 8
26 27 28 30 26 23 24 21 16 10 8 7 6 8 4 4 9 7 6 9 7 7 5 11 10 4 2 3 3 5 4 3 2 3 11 7 5 7 6 7 7 11 10 4 11 4 9
26 27 27 29 24 24 27 22 17 11 8 7 8 8 6 3 12 13 11 12 9 8 4 8 8 2 3 3 3 3 3 4 4 5 4 5 6 4 3 5 6 15 2 4 7 7 9
28 27 27 27 28 23 27 26 19 13 8 7 8 5 10 6 9 24 24 23 23 22 11 3 4 6 3 3 2 3 3 3 6 2 3 1 4 2 4 4 8 4 10 10 9 9 11
Wind_Direction
16 13 11 9 6 2 359 359 358 353 349 348 347 342 337 333 329 324 320 319 317 317 310 303 309 311 320 236 245 228 245 319 354 172 200 203 213 217 232 237 239 243 251 252 250 264 267
17 13 10 7 5 2 358 355 353 350 349 347 343 340 337 333 329 323 320 316 314 312 306 299 290 292 268 254 279 263 279 289 275 239 213 214 226 226 242 242 243 247 246 250 257 256 260
15 13 12 10 6 2 358 356 352 349 347 345 342 342 338 333 327 323 318 314 312 310 299 284 265 253 259 252 264 274 275 270 253 251 237 217 223 227 223 249 254 258 254 257 247 252 252
15 14 11 8 5 -0 358 354 349 347 345 342 341 341 339 336 331 325 318 315 311 305 293 276 239 228 258 257 260 261 266 262 249 245 241 254 227 237 241 262 266 249 243 249 232 232 244
13 9 6 3 2 358 355 352 348 344 340 339 339 337 336 334 331 328 323 319 308 299 302 221 188 212 273 225 237 255 246 248 247 229 231 234 227 228 221 231 246 231 237 236 245 242 238
8 6 5 4 2 0 0 355 351 348 342 339 336 335 335 334 331 331 329 328 301 272 34 182 245 218 241 242 228 223 265 228 242 215 204 213 208 213 223 212 226 229 232 243 258 240 224
10 7 7 4 2 0 357 354 352 347 344 341 337 335 336 335 332 330 333 321 244 205 221 259 264 242 288 277 259 262 243 213 208 225 204 196 203 214 218 220 235 246 243 246 245 244 242
8 6 4 1 0 358 356 355 352 349 347 345 344 340 338 336 331 328 334 333 20 336 295 272 257 261 263 272 275 268 257 227 201 221 212 191 217 221 220 223 228 236 242 247 255 247 242
5 3 2 1 359 357 356 353 351 350 346 344 342 341 340 333 331 343 331 290 304 330 264 285 258 257 257 237 248 257 238 227 233 228 215 217 223 220 221 222 226 227 232 239 249 252 249
2 360 359 2 0 358 356 352 349 348 346 342 341 339 336 333 299 328 302 227 300 323 280 258 204 199 182 219 227 235 243 221 222 232 228 232 236 216 220 226 219 231 222 241 250 252 253
1 358 358 2 360 359 357 353 349 347 345 341 336 332 327 318 295 293 325 297 308 254 279 94 135 95 195 233 328 92 175 227 237 217 220 226 223 230 224 226 217 233 224 230 241 251 266
358 355 357 1 359 359 355 351 350 348 345 340 333 329 323 322 259 282 287 291 263 234 247 317 128 291 286 207 301 319 271 211 258 239 239 240 231 227 231 224 220 220 217 224 234 243 249
355 352 352 356 354 354 352 350 349 349 346 340 334 330 349 314 328 315 278 258 236 250 14 292 339 323 302 283 297 297 301 280 219 213 228 230 237 247 240 217 205 188 193 198 220 224 253
353 351 349 348 351 351 351 349 348 349 347 342 343 50 3 344 304 289 241 219 267 344 290 320 323 308 282 290 167 298 286 315 291 236 223 222 228 221 214 214 191 192 189 207 215 229 244
350 349 347 345 347 350 348 348 350 350 347 346 3 100 11 349 329 221 256 243 335 340 331 315 306 271 270 218 253 272 278 308 291 317 249 211 232 192 226 213 199 192 213 213 244 268 259
354 348 346 345 346 348 347 350 350 350 348 348 333 272 29 7 40 244 292 298 315 305 304 306 295 280 286 292 292 289 250 128 310 327 308 286 262 225 198 206 205 196 195 203 211 225 218
353 349 347 346 347 349 349 349 351 352 349 2 329 258 27 16 308 198 338 326 318 323 319 312 307 304 299 286 283 283 272 130 134 307 300 274 256 218 192 204 191 188 198 209 213 232 204
353 350 348 347 347 350 351 349 353 356 353 358 331 308 20 332 303 352 327 325 320 304 326 301 285 289 284 296 281 263 262 245 170 270 303 260 273 258 212 202 214 198 201 198 197 195 237
357 353 349 347 348 350 350 350 354 358 359 337 333 303 6 320 352 343 317 306 286 303 322 322 298 279 312 292 296 282 318 113 168 206 293 349 227 227 224 201 206 209 209 196 213 189 202
358 356 350 347 347 348 352 351 355 356 351 338 325 329 10 12 355 326 337 328 329 319 315 299 301 288 327 315 267 291 342 329 290 245 238 251 258 242 211 190 192 205 201 193 203 206 189
0 357 353 348 348 351 351 351 356 353 349 330 9 9 351 311 339 313 308 299 311 340 315 316 295 313 331 313 317 124 307 320 294 210 240 255 239 223 245 303 304 262 206 199 205 214 224
3 0 355 350 348 349 349 355 352 353 350 328 354 352 337 296 302 324 310 300 315 329 311 301 300 327 323 302 295 301 312 308 318 340 294 256 281 248 238 241 240 235 240 205 204 206 226
3 1 359 352 350 352 351 355 350 353 353 319 305 274 274 290 301 313 318 318 302 309 286 306 307 305 299 323 325 304 293 285 266 282 292 313 303 231 226 212 209 223 210 215 204 208 218
358 359 359 354 351 354 353 354 346 351 342 282 253 269 269 290 323 300 302 308 313 311 293 293 295 282 321 326 304 280 253 249 252 253 247 267 311 275 232 166 213 90 45 206 211 209 223
352 355 356 354 345 348 352 356 346 343 332 282 239 228 258 287 308 294 323 314 299 311 301 298 319 281 299 300 281 270 214 249 235 225 223 234 258 288 235 196 134 110 38 333 202 142 360
349 352 354 352 346 345 346 351 349 337 321 298 269 227 261 293 267 328 307 294 307 322 311 329 329 328 312 280 270 276 294 328 119 188 194 211 222 293 255 210 208 46 356 330 264 167 21
345 348 351 353 349 350 345 344 345 331 310 299 271 221 236 264 273 318 293 302 298 310 289 307 332 301 205 295 278 294 290 279 293 197 169 180 212 231 261 229 103 8 344 186 211 78 352
342 344 348 352 351 347 350 341 341 331 305 296 276 231 220 261 283 276 288 282 276 278 276 315 315 57 294 309 305 348 286 338 282 124 160 190 187 184 241 255 153 360 17 327 22 357 354
340 339 343 344 348 338 341 344 335 325 302 286 274 217 230 235 273 297 286 271 267 274 286 263 287 312 294 310 344 309 305 304 327 22 121 133 355 351 5 36 332 318 59 49 12 356 351